Gold Coast Seaway Observation History
Time Wind Speed Temp Pressure Rel. Hum Rain
26/01:30pm ESE 10-11 kts 24.5°c 1010.2 hPa 71% 0.0mm
26/01:00pm E 10-12 kts 24.1°c 1010.4 hPa 73% 0.0mm
26/12:30pm ESE 10-11 kts 23.8°c 1010.6 hPa 74% 0.0mm
26/12:00pm ESE 9-11 kts 24.2°c 1010.9 hPa 70% 0.0mm
26/11:30am SE 7-9 kts 23.9°c 1011.1 hPa 72% 0.0mm
26/11:00am SSE 8-11 kts 22.8°c 1011.4 hPa 76% 0.0mm
26/10:30am SE 7-8 kts 22.6°c 1012.1 hPa 75% 0.0mm
26/10:00am SSE 6-8 kts 22.6°c 1012.4 hPa 74% 0.0mm
26/09:30am SE 7-8 kts 22.5°c 1012.5 hPa 78% 0.0mm
26/09:00am SE 10-12 kts 22.0°c 1012.2 hPa 79% 0.8mm
26/08:30am SE 10-11 kts 21.1°c 1012.3 hPa 84% 0.8mm
26/08:00am SSE 9-12 kts 20.9°c 1011.8 hPa 85% 0.8mm
26/07:30am SSE 7-10 kts 20.7°c 1011.8 hPa 86% 0.8mm
26/07:00am SSE 7-8 kts 20.2°c 1011.8 hPa 88% 0.8mm
26/06:30am SSE 8-10 kts 19.9°c 1011.4 hPa 88% 0.8mm
26/06:00am SSE 8-10 kts 20.0°c 1010.5 hPa 89% 0.8mm
26/05:30am SSE 9-12 kts 19.8°c 1010.4 hPa 89% 0.8mm
26/05:00am S 4-6 kts 20.1°c 1010.0 hPa 89% 0.8mm
26/04:30am SE 3-5 kts 20.1°c 1009.6 hPa 89% 0.8mm
26/04:00am CALM 0 kts 19.5°c 1009.2 hPa 88% 0.8mm
26/03:30am WNW 4-5 kts 20.4°c 1009.2 hPa 89% 0.8mm
26/03:00am ENE 2-4 kts 20.3°c 1009.1 hPa 88% 0.6mm
26/02:30am ENE 3-5 kts 20.4°c 1009.3 hPa 88% 0.6mm
26/02:00am W 4-5 kts 20.9°c 1009.2 hPa 88% 0.6mm
26/01:30am WNW 5-7 kts 21.0°c 1009.2 hPa 87% 0.6mm
26/01:00am CALM 0 kts 20.8°c 1009.6 hPa 86% 0.6mm
26/12:30am SW 2-6 kts 20.9°c 1010.2 hPa 86% 0.6mm
26/12:00am CALM 0 kts 20.7°c 1010.5 hPa 86% 0.6mm
Time Wind Speed Temp Pressure Rel. Hum Rain
25/11:30pm SW 5-6 kts 20.7°c 1010.6 hPa 87% 0.6mm
25/11:00pm SW 6-8 kts 20.7°c 1010.9 hPa 87% 0.6mm
25/10:30pm SW 1-4 kts 20.9°c 1010.8 hPa 87% 0.6mm
25/10:00pm SW 4-5 kts 20.6°c 1011.0 hPa 88% 0.6mm
25/09:30pm SE 5-6 kts 20.4°c 1010.9 hPa 87% 0.6mm
25/09:00pm SE 4-5 kts 20.5°c 1011.2 hPa 87% 0.4mm
25/08:30pm ESE 8-9 kts 20.4°c 1011.2 hPa 86% 0.4mm
25/08:00pm SE 8-9 kts 20.3°c 1011.1 hPa 86% 0.4mm
25/07:30pm SSE 7-9 kts 20.4°c 1011.0 hPa 84% 0.4mm
25/07:00pm S 5-7 kts 20.3°c 1011.0 hPa 85% 0.4mm
25/06:30pm SE 5-6 kts 20.4°c 1010.4 hPa 85% 0.4mm
25/06:00pm SE 2-5 kts 20.5°c 1010.3 hPa 82% 0.4mm
25/05:30pm WNW 4-5 kts 21.0°c 1009.9 hPa 79% 0.4mm
25/05:00pm NNW 5-7 kts 20.9°c 1009.8 hPa 79% 0.4mm
25/04:30pm N 9-17 kts 20.3°c 1009.2 hPa 83% 0.4mm
25/04:00pm N 9-17 kts 20.0°c 1008.3 hPa 83% 0.4mm
25/03:30pm NNW 11-18 kts 20.4°c 1008.5 hPa 81% 0.4mm
25/03:00pm NNE 14-19 kts 21.9°c 1007.8 hPa 87% 0.4mm
25/02:30pm N 10-17 kts 22.5°c 1008.4 hPa 86% 0.2mm
25/02:00pm N 11-16 kts 22.8°c 1008.8 hPa 84% 0.2mm
25/01:30pm NNE 14-19 kts 23.3°c 1008.8 hPa 80% 0.2mm
25/01:00pm NNE 14-18 kts 25.6°c 1009.0 hPa 70% 0.2mm
25/12:30pm NE 13-17 kts 26.6°c 1009.5 hPa 70% 0.2mm
25/12:00pm NNE 10-14 kts 26.4°c 1009.9 hPa 69% 0.2mm
25/11:30am NNE 10-14 kts 26.4°c 1010.0 hPa 68% 0.2mm
25/11:00am NNE 9-13 kts 26.6°c 1010.2 hPa 66% 0.2mm
25/10:30am NNE 8-11 kts 25.5°c 1010.7 hPa 74% 0.2mm
25/10:00am N 7-11 kts 26.3°c 1010.9 hPa 67% 0.2mm
25/09:30am N 7-11 kts 25.6°c 1011.0 hPa 67% 0.2mm
25/09:00am NNW 7-13 kts 25.0°c 1011.1 hPa 71% 19.0mm
25/08:30am NNW 7-15 kts 25.0°c 1011.2 hPa 75% 19.0mm
25/08:00am NNW 9-13 kts 23.7°c 1011.1 hPa 78% 19.0mm
25/07:30am NNW 5-9 kts 22.7°c 1011.2 hPa 84% 19.0mm
25/07:00am NNW 5-8 kts 21.9°c 1010.9 hPa 87% 19.0mm
25/06:30am NW 5-7 kts 21.3°c 1010.8 hPa 87% 19.0mm
25/06:00am NW 4-6 kts 20.7°c 1010.6 hPa 89% 19.0mm
25/05:30am NNW 4-6 kts 20.3°c 1010.4 hPa 89% 19.0mm
25/05:00am NW 5-7 kts 20.2°c 1010.2 hPa 89% 19.0mm
25/04:30am NW 5-8 kts 20.2°c 1009.8 hPa 89% 19.0mm
25/04:00am NNW 6-9 kts 20.3°c 1009.7 hPa 89% 19.0mm
25/03:30am NNW 4-6 kts 20.3°c 1009.4 hPa 89% 19.0mm
25/03:00am NNW 4-6 kts 20.2°c 1009.5 hPa 89% 19.0mm
25/02:30am CALM 0 kts 20.2°c 1009.3 hPa 89% 19.0mm
25/02:00am NNW 2-4 kts 20.0°c 1009.4 hPa 88% 19.0mm
25/01:30am CALM 0 kts 20.0°c 1009.3 hPa 89% 19.0mm
25/01:00am CALM 0 kts 20.0°c 1009.5 hPa 89% 19.0mm
25/12:30am SW 3-4 kts 19.9°c 1009.8 hPa 90% 19.0mm
25/12:00am WSW 2-5 kts 19.7°c 1010.2 hPa 89% 19.0mm
Time Wind Speed Temp Pressure Rel. Hum Rain
24/11:30pm WNW 2-4 kts 19.7°c 1010.4 hPa 89% 19.0mm
24/11:00pm N 4 kts 19.6°c 1010.5 hPa 88% 19.0mm
24/10:30pm NNW 3-4 kts 19.7°c 1011.0 hPa 88% 19.0mm
24/10:00pm CALM 0-3 kts 20.0°c 1010.7 hPa 89% 19.0mm
24/09:30pm CALM 0-4 kts 20.4°c 1010.7 hPa 89% 19.0mm
24/09:00pm W 2-5 kts 20.4°c 1010.9 hPa 88% 19.0mm
24/08:30pm WNW 4-5 kts 20.3°c 1010.9 hPa 88% 19.0mm
24/08:00pm NNE 9-13 kts 20.5°c 1011.2 hPa 89% 19.0mm
24/07:30pm NNE 11-16 kts 20.5°c 1011.6 hPa 90% 19.0mm
24/07:00pm N 8-12 kts 20.1°c 1011.4 hPa 90% 18.6mm
24/06:30pm N 7-11 kts 19.8°c 1011.0 hPa 90% 18.4mm
24/06:00pm N 5-8 kts 19.9°c 1010.8 hPa 90% 18.2mm
24/05:30pm N 5-7 kts 20.0°c 1010.8 hPa 90% 17.8mm
24/05:00pm N 5-7 kts 20.3°c 1010.8 hPa 90% 17.0mm
24/04:30pm NNW 5-9 kts 20.3°c 1010.7 hPa 90% 15.0mm
24/04:00pm N 6-8 kts 20.1°c 1010.6 hPa 89% 12.6mm
24/03:30pm W 5-9 kts 20.0°c 1010.2 hPa 88% 10.6mm
24/03:00pm NNW 7-10 kts 22.4°c 1010.2 hPa 85% 0.6mm
24/02:30pm N 9-13 kts 22.6°c 1010.2 hPa 82% 0.2mm
24/02:00pm N 8-11 kts 23.3°c 1010.5 hPa 79% 0.0mm
24/01:30pm N 8-13 kts 23.4°c 1010.7 hPa 77% 0.0mm
24/01:00pm NNE 9-14 kts 24.3°c 1011.1 hPa 73% 0.0mm
24/12:30pm N 9-14 kts 24.2°c 1011.4 hPa 70% 0.0mm
24/12:00pm N 7-14 kts 24.2°c 1011.7 hPa 69% 0.0mm
24/11:30am NNW 9-16 kts 24.4°c 1011.9 hPa 65% 0.0mm
24/11:00am NNW 10-17 kts 25.1°c 1012.2 hPa 65% 0.0mm
24/10:30am NNW 11-19 kts 24.7°c 1012.6 hPa 65% 0.0mm
24/10:00am NNW 9-15 kts 24.8°c 1013.1 hPa 68% 0.0mm
24/09:30am NNW 10-18 kts 24.5°c 1013.4 hPa 69% 0.0mm
24/09:00am NNW 8-12 kts 23.2°c 1013.4 hPa 76% 2.8mm
24/08:30am NNW 6-9 kts 22.6°c 1013.8 hPa 84% 2.8mm
24/08:00am N 6-9 kts 21.9°c 1013.7 hPa 85% 2.8mm
24/07:30am N 7-9 kts 21.7°c 1013.8 hPa 86% 2.8mm
24/07:00am N 8-14 kts 21.0°c 1014.0 hPa 86% 2.8mm
24/06:30am N 5-9 kts 21.3°c 1013.9 hPa 88% 2.8mm
24/06:00am N 5-9 kts 20.9°c 1013.7 hPa 87% 2.8mm
24/05:30am NNW 6-10 kts 22.0°c 1013.4 hPa 79% 0.0mm
24/05:00am NNW 6-9 kts 21.8°c 1013.1 hPa 77% 0.0mm
24/04:30am NNW 7-11 kts 21.9°c 1012.9 hPa 77% 0.0mm
24/04:00am N 7-11 kts 21.8°c 1012.5 hPa 79% 0.0mm
24/03:30am N 7-12 kts 21.9°c 1012.4 hPa 79% 0.0mm
24/03:00am N 5-8 kts 21.4°c 1012.5 hPa 79% 0.0mm
24/02:30am N 6-9 kts 21.3°c 1012.7 hPa 79% 0.0mm
24/02:00am N 7-11 kts 21.6°c 1012.6 hPa 79% 0.0mm
24/01:30am NNW 7-10 kts 21.8°c 1012.9 hPa 79% 0.0mm
24/01:00am N 7-13 kts 21.8°c 1012.8 hPa 78% 0.0mm
24/12:30am NNW 7-11 kts 22.1°c 1013.5 hPa 78% 0.0mm
24/12:00am N 6-10 kts 21.8°c 1013.8 hPa 78% 0.0mm